Tracking 18840 objects as of 18-November-2017
HD Live streaming from Space Station
objects crossing your sky now

RADUGA 1-1

Track RADUGA 1-1 now!
RADUGA 1-1 is classified as:


NORAD ID: 20083
Int'l Code: 1989-048A
Perigee: 36,173.4 km
Apogee: 36,300.8 km
Inclination: 15.4 °
Period: 1,458.8 minutes
Semi major axis: 42608 km
RCS: 2.8183 m2 (large)
Launch date: June 21, 1989
Source: Commonwealth of Independent States (former USSR) (CIS)
Launch site: TYURATAM MISSILE AND SPACE COMPLEX (TTMTR)
aabbcc
Your satellite tracking list
Your tracking list is empty




NASA's NSSDC Master Catalog

Two Line Element Set (TLE):
1 20083U 89048A   17321.41160562 -.00000272  00000-0  00000+0 0  9992
2 20083  15.3695   0.9862 0014950  65.2384 295.6050  0.98710779100327
Source of the keplerian elements: AFSPC